Time,TemperatureF,DewpointF,PressureIn,WindDirection,WindDirectionDegrees,WindSpeedMPH,WindSpeedGustMPH,Humidity,HourlyPrecipIn,Conditions,Clouds,dailyrainin,SolarRadiationWatts/m^2,SoftwareType,DateUTC
2013-06-05 00:00:00,65.8,54.5,29.95,ENE,68,1.0,1.0,67,0.00,,,0.01,0,Wunderground v.1.15,2013-06-05 04:00:00,
2013-06-05 00:05:00,65.8,54.5,29.96,ENE,58,1.0,1.0,67,0.00,,,0.00,0,Wunderground v.1.15,2013-06-05 04:05:00,
2013-06-05 00:09:00,65.8,54.1,29.96,ENE,70,1.0,2.0,66,0.00,,,0.00,0,Wunderground v.1.15,2013-06-05 04:09:00,
2013-06-05 00:15:00,65.8,54.1,29.96,East,88,1.0,2.0,66,0.00,,,0.00,0,Wunderground v.1.15,2013-06-05 04:15:00,
2013-06-05 00:20:00,65.8,54.1,29.95,East,85,1.0,1.0,66,0.00,,,0.00,0,Wunderground v.1.15,2013-06-05 04:20:00,
2013-06-05 00:30:00,65.6,53.5,29.95,East,85,1.0,1.0,65,0.00,,,0.00,0,Wunderground v.1.15,2013-06-05 04:30:00,
2013-06-05 00:39:00,65.7,52.8,29.95,East,97,2.0,2.0,63,0.00,,,0.00,0,Wunderground v.1.15,2013-06-05 04:39:00,
2013-06-05 00:45:00,65.8,52.9,29.95,East,94,2.0,2.0,63,0.00,,,0.00,0,Wunderground v.1.15,2013-06-05 04:45:00,
2013-06-05 00:50:00,65.7,52.8,29.95,East,97,2.0,2.0,63,0.00,,,0.00,0,Wunderground v.1.15,2013-06-05 04:50:00,
2013-06-05 01:00:00,65.5,52.1,29.95,East,95,1.0,2.0,62,0.00,,,0.00,0,Wunderground v.1.15,2013-06-05 05:00:00,
2013-06-05 01:05:00,65.4,52.5,29.95,East,88,1.0,2.0,63,0.00,,,0.00,0,Wunderground v.1.15,2013-06-05 05:05:00,
2013-06-05 01:15:00,64.9,52.8,29.94,East,92,1.0,2.0,65,0.00,,,0.00,0,Wunderground v.1.15,2013-06-05 05:15:00,
2013-06-05 01:20:00,64.7,52.7,29.94,ESE,106,1.0,1.0,65,0.00,,,0.00,0,Wunderground v.1.15,2013-06-05 05:20:00,
2013-06-05 01:30:00,64.6,52.1,29.94,East,95,1.0,1.0,64,0.00,,,0.00,0,Wunderground v.1.15,2013-06-05 05:30:00,
2013-06-05 01:35:00,64.6,52.6,29.94,ESE,104,1.0,1.0,65,0.00,,,0.00,0,Wunderground v.1.15,2013-06-05 05:35:00,
2013-06-05 01:45:00,64.1,52.5,29.94,ESE,104,0.0,2.0,66,0.00,,,0.00,0,Wunderground v.1.15,2013-06-05 05:45:00,
2013-06-05 01:50:00,63.9,51.9,29.94,ESE,114,1.0,1.0,65,0.00,,,0.00,0,Wunderground v.1.15,2013-06-05 05:50:00,
2013-06-05 01:59:00,63.6,52.4,29.94,East,98,1.0,1.0,67,0.00,,,0.00,0,Wunderground v.1.15,2013-06-05 05:59:00,
2013-06-05 02:05:00,63.3,52.2,29.93,ESE,108,1.0,1.0,67,0.00,,,0.00,0,Wunderground v.1.15,2013-06-05 06:05:00,
2013-06-05 02:10:00,63.4,51.8,29.93,ESE,112,1.0,1.0,66,0.00,,,0.00,0,Wunderground v.1.15,2013-06-05 06:10:00,
2013-06-05 02:20:00,63.5,51.9,29.93,ESE,121,1.0,1.0,66,0.00,,,0.00,0,Wunderground v.1.15,2013-06-05 06:20:00,
2013-06-05 02:29:00,63.3,52.2,29.93,ESE,102,1.0,1.0,67,0.00,,,0.00,0,Wunderground v.1.15,2013-06-05 06:29:00,
2013-06-05 02:35:00,63.2,51.6,29.93,SE,133,1.0,2.0,66,0.00,,,0.00,0,Wunderground v.1.15,2013-06-05 06:35:00,
2013-06-05 02:40:00,63.1,52.0,29.93,ESE,104,1.0,1.0,67,0.00,,,0.00,0,Wunderground v.1.15,2013-06-05 06:40:00,
2013-06-05 02:50:00,62.7,52.0,29.93,ESE,111,1.0,1.0,68,0.00,,,0.00,0,Wunderground v.1.15,2013-06-05 06:50:00,
2013-06-05 02:55:00,62.6,51.9,29.93,SE,127,1.0,1.0,68,0.00,,,0.00,0,Wunderground v.1.15,2013-06-05 06:55:00,
2013-06-05 03:05:00,62.7,51.6,29.93,ESE,118,2.0,2.0,67,0.00,,,0.00,0,Wunderground v.1.15,2013-06-05 07:05:00,
2013-06-05 03:10:00,62.9,51.8,29.93,ESE,123,2.0,2.0,67,0.00,,,0.00,0,Wunderground v.1.15,2013-06-05 07:10:00,
2013-06-05 03:20:00,62.7,51.6,29.93,ESE,119,1.0,1.0,67,0.00,,,0.00,0,Wunderground v.1.15,2013-06-05 07:20:00,
2013-06-05 03:25:00,62.7,51.2,29.93,ESE,116,1.0,2.0,66,0.00,,,0.00,0,Wunderground v.1.15,2013-06-05 07:25:00,
2013-06-05 03:35:00,62.7,51.6,29.92,ESE,114,2.0,2.0,67,0.00,,,0.00,0,Wunderground v.1.15,2013-06-05 07:35:00,
2013-06-05 03:40:00,62.6,51.5,29.92,ESE,113,2.0,2.0,67,0.00,,,0.00,0,Wunderground v.1.15,2013-06-05 07:40:00,
2013-06-05 03:50:00,62.5,51.4,29.92,ESE,118,2.0,2.0,67,0.00,,,0.00,0,Wunderground v.1.15,2013-06-05 07:50:00,
2013-06-05 03:55:00,62.5,51.4,29.92,ESE,117,1.0,2.0,67,0.00,,,0.00,0,Wunderground v.1.15,2013-06-05 07:55:00,
2013-06-05 04:00:00,62.5,51.8,29.92,ESE,117,1.0,1.0,68,0.00,,,0.00,0,Wunderground v.1.15,2013-06-05 08:00:00,
2013-06-05 04:10:00,62.1,51.4,29.92,ESE,115,1.0,2.0,68,0.00,,,0.00,0,Wunderground v.1.15,2013-06-05 08:10:00,
2013-06-05 04:15:00,62.0,51.3,29.92,ESE,115,1.0,2.0,68,0.00,,,0.00,0,Wunderground v.1.15,2013-06-05 08:15:00,
2013-06-05 04:25:00,61.9,51.6,29.92,ESE,115,1.0,1.0,69,0.00,,,0.00,0,Wunderground v.1.15,2013-06-05 08:25:00,
2013-06-05 04:30:00,61.7,51.8,29.92,ESE,115,1.0,1.0,70,0.00,,,0.00,0,Wunderground v.1.15,2013-06-05 08:30:00,
2013-06-05 04:40:00,61.3,51.8,29.92,ESE,115,1.0,2.0,71,0.00,,,0.00,0,Wunderground v.1.15,2013-06-05 08:40:00,
2013-06-05 04:45:00,61.3,51.4,29.92,SE,124,1.0,2.0,70,0.00,,,0.00,0,Wunderground v.1.15,2013-06-05 08:45:00,
2013-06-05 04:55:00,61.9,51.6,29.92,ESE,108,2.0,3.0,69,0.00,,,0.00,0,Wunderground v.1.15,2013-06-05 08:55:00,
2013-06-05 05:00:00,62.1,51.4,29.92,ESE,116,2.0,2.0,68,0.00,,,0.00,0,Wunderground v.1.15,2013-06-05 09:00:00,
2013-06-05 05:10:00,62.4,51.7,29.92,East,96,2.0,3.0,68,0.00,,,0.00,0,Wunderground v.1.15,2013-06-05 09:10:00,
2013-06-05 05:15:00,62.4,51.3,29.92,ESE,110,2.0,3.0,67,0.00,,,0.00,0,Wunderground v.1.15,2013-06-05 09:15:00,
2013-06-05 05:25:00,62.4,51.3,29.91,ESE,108,2.0,4.0,67,0.00,,,0.00,0,Wunderground v.1.15,2013-06-05 09:25:00,
2013-06-05 05:30:00,62.3,51.2,29.91,ESE,112,2.0,2.0,67,0.00,,,0.00,0,Wunderground v.1.15,2013-06-05 09:30:00,
2013-06-05 05:40:00,62.3,51.6,29.91,East,97,2.0,2.0,68,0.00,,,0.00,0,Wunderground v.1.15,2013-06-05 09:40:00,
2013-06-05 05:45:00,62.3,51.6,29.91,ESE,109,1.0,2.0,68,0.00,,,0.00,0,Wunderground v.1.15,2013-06-05 09:45:00,
2013-06-05 05:54:00,62.0,51.3,29.91,ESE,110,1.0,2.0,68,0.00,,,0.00,0,Wunderground v.1.15,2013-06-05 09:54:00,
2013-06-05 06:00:00,61.9,51.6,29.91,ESE,110,1.0,1.0,69,0.00,,,0.00,0,Wunderground v.1.15,2013-06-05 10:00:00,
2013-06-05 06:10:00,61.8,51.5,29.92,ESE,122,1.0,1.0,69,0.00,,,0.00,0,Wunderground v.1.15,2013-06-05 10:10:00,
2013-06-05 06:15:00,61.7,51.4,29.91,ESE,122,1.0,1.0,69,0.00,,,0.00,0,Wunderground v.1.15,2013-06-05 10:15:00,
2013-06-05 06:25:00,61.7,51.4,29.92,East,89,1.0,1.0,69,0.00,,,0.00,0,Wunderground v.1.15,2013-06-05 10:25:00,
2013-06-05 06:30:00,61.7,51.4,29.92,East,89,0.0,0.0,69,0.00,,,0.00,5,Wunderground v.1.15,2013-06-05 10:30:00,
2013-06-05 06:39:00,61.7,52.2,29.92,East,89,0.0,0.0,71,0.00,,,0.00,14,Wunderground v.1.15,2013-06-05 10:39:00,
2013-06-05 06:45:00,61.7,51.4,29.92,East,89,0.0,1.0,69,0.00,,,0.00,19,Wunderground v.1.15,2013-06-05 10:45:00,
2013-06-05 06:54:00,61.8,51.5,29.92,East,89,0.0,0.0,69,0.00,,,0.00,32,Wunderground v.1.15,2013-06-05 10:54:00,
2013-06-05 07:00:00,61.9,51.6,29.93,East,89,0.0,2.0,69,0.00,,,0.00,32,Wunderground v.1.15,2013-06-05 11:00:00,
2013-06-05 07:09:00,62.2,51.9,29.92,East,89,0.0,0.0,69,0.00,,,0.00,37,Wunderground v.1.15,2013-06-05 11:09:00,
2013-06-05 07:15:00,62.3,51.6,29.92,East,89,0.0,0.0,68,0.00,,,0.00,47,Wunderground v.1.15,2013-06-05 11:15:00,
2013-06-05 07:20:00,62.5,52.2,29.92,East,89,0.0,0.0,69,0.00,,,0.00,72,Wunderground v.1.15,2013-06-05 11:20:00,
2013-06-05 07:30:00,62.7,51.6,29.93,East,99,0.0,0.0,67,0.00,,,0.00,102,Wunderground v.1.15,2013-06-05 11:30:00,
2013-06-05 07:40:00,63.4,51.8,29.92,East,83,0.0,0.0,66,0.00,,,0.00,134,Wunderground v.1.15,2013-06-05 11:40:00,
2013-06-05 07:45:00,63.8,52.6,29.92,East,83,0.0,0.0,67,0.00,,,0.00,172,Wunderground v.1.15,2013-06-05 11:45:00,
2013-06-05 07:50:00,64.1,52.5,29.92,ESE,102,1.0,1.0,66,0.00,,,0.00,162,Wunderground v.1.15,2013-06-05 11:50:00,
2013-06-05 08:00:00,64.4,52.4,29.92,East,82,1.0,1.0,65,0.00,,,0.00,91,Wunderground v.1.15,2013-06-05 12:00:00,
2013-06-05 08:05:00,64.5,52.5,29.92,East,93,1.0,1.0,65,0.00,,,0.00,134,Wunderground v.1.15,2013-06-05 12:05:00,
2013-06-05 08:15:00,64.6,52.1,29.92,East,94,1.0,2.0,64,0.00,,,0.00,195,Wunderground v.1.15,2013-06-05 12:15:00,
2013-06-05 08:24:00,65.3,52.8,29.92,ENE,71,1.0,3.0,64,0.00,,,0.00,267,Wunderground v.1.15,2013-06-05 12:24:00,
2013-06-05 08:30:00,65.9,52.9,29.92,East,79,1.0,5.0,63,0.00,,,0.00,350,Wunderground v.1.15,2013-06-05 12:30:00,
2013-06-05 08:35:00,66.5,53.1,29.92,East,80,1.0,5.0,62,0.00,,,0.00,438,Wunderground v.1.15,2013-06-05 12:35:00,
2013-06-05 08:45:00,66.2,52.8,29.91,ENE,74,4.0,8.0,62,0.00,,,0.00,214,Wunderground v.1.15,2013-06-05 12:45:00,
2013-06-05 08:55:00,66.0,53.0,29.91,ESE,112,3.0,5.0,63,0.00,,,0.00,255,Wunderground v.1.15,2013-06-05 12:55:00,
2013-06-05 09:04:00,66.3,53.8,29.91,East,98,2.0,3.0,64,0.00,,,0.00,253,Wunderground v.1.15,2013-06-05 13:04:00,
2013-06-05 09:10:00,66.6,53.6,29.91,ESE,102,3.0,3.0,63,0.00,,,0.00,313,Wunderground v.1.15,2013-06-05 13:10:00,
2013-06-05 09:15:00,66.9,53.9,29.91,East,87,2.0,3.0,63,0.00,,,0.00,248,Wunderground v.1.15,2013-06-05 13:15:00,
2013-06-05 09:25:00,67.3,53.4,29.91,East,98,2.0,3.0,61,0.00,,,0.00,341,Wunderground v.1.15,2013-06-05 13:25:00,
2013-06-05 09:30:00,67.4,53.0,29.90,ESE,102,3.0,3.0,60,0.00,,,0.00,285,Wunderground v.1.15,2013-06-05 13:30:00,
2013-06-05 09:40:00,67.9,54.4,29.90,ESE,115,3.0,4.0,62,0.00,,,0.00,473,Wunderground v.1.15,2013-06-05 13:40:00,
2013-06-05 09:45:00,68.4,54.0,29.90,ENE,62,3.0,5.0,60,0.00,,,0.00,452,Wunderground v.1.15,2013-06-05 13:45:00,
2013-06-05 09:55:00,68.4,54.4,29.89,SE,127,5.0,7.0,61,0.00,,,0.00,512,Wunderground v.1.15,2013-06-05 13:55:00,
2013-06-05 10:00:00,68.8,55.2,29.89,East,85,4.0,4.0,62,0.00,,,0.00,541,Wunderground v.1.15,2013-06-05 14:00:00,
2013-06-05 10:10:00,69.0,55.4,29.89,ESE,116,4.0,4.0,62,0.00,,,0.00,594,Wunderground v.1.15,2013-06-05 14:10:00,
2013-06-05 10:15:00,69.4,55.8,29.89,ESE,119,4.0,4.0,62,0.00,,,0.00,640,Wunderground v.1.15,2013-06-05 14:15:00,
2013-06-05 10:25:00,69.4,55.4,29.88,ESE,122,4.0,4.0,61,0.00,,,0.00,313,Wunderground v.1.15,2013-06-05 14:25:00,
2013-06-05 10:30:00,69.2,55.6,29.88,ESE,120,4.0,4.0,62,0.00,,,0.00,287,Wunderground v.1.15,2013-06-05 14:30:00,
2013-06-05 10:40:00,69.3,56.2,29.87,ESE,114,3.0,3.0,63,0.00,,,0.00,722,Wunderground v.1.15,2013-06-05 14:40:00,
2013-06-05 10:45:00,70.4,57.2,29.87,ESE,116,3.0,5.0,63,0.00,,,0.00,689,Wunderground v.1.15,2013-06-05 14:45:00,
2013-06-05 10:55:00,71.0,56.9,29.87,East,100,3.0,5.0,61,0.00,,,0.00,459,Wunderground v.1.15,2013-06-05 14:55:00,
2013-06-05 11:00:00,71.3,57.2,29.88,NE,40,2.0,2.0,61,0.00,,,0.00,401,Wunderground v.1.15,2013-06-05 15:00:00,
2013-06-05 11:05:00,71.5,57.3,29.88,East,85,3.0,5.0,61,0.00,,,0.00,406,Wunderground v.1.15,2013-06-05 15:05:00,
2013-06-05 11:15:00,71.2,57.1,29.88,ESE,110,2.0,3.0,61,0.00,,,0.00,381,Wunderground v.1.15,2013-06-05 15:15:00,
2013-06-05 11:20:00,71.6,57.4,29.88,ESE,110,2.0,2.0,61,0.00,,,0.00,373,Wunderground v.1.15,2013-06-05 15:20:00,
2013-06-05 11:30:00,72.3,58.1,29.88,East,79,1.0,2.0,61,0.00,,,0.00,434,Wunderground v.1.15,2013-06-05 15:30:00,
2013-06-05 11:35:00,72.6,57.9,29.89,SE,139,2.0,3.0,60,0.00,,,0.00,439,Wunderground v.1.15,2013-06-05 15:35:00,
2013-06-05 11:45:00,73.2,58.5,29.89,SE,127,1.0,1.0,60,0.00,,,0.00,865,Wunderground v.1.15,2013-06-05 15:45:00,
2013-06-05 11:50:00,73.9,58.7,29.89,SE,144,0.0,0.0,59,0.00,,,0.00,976,Wunderground v.1.15,2013-06-05 15:50:00,
2013-06-05 12:00:00,73.7,58.9,29.89,NW,318,2.0,2.0,60,0.00,,,0.00,856,Wunderground v.1.15,2013-06-05 16:00:00,
2013-06-05 12:05:00,73.7,59.4,29.89,NNW,341,2.0,2.0,61,0.00,,,0.00,837,Wunderground v.1.15,2013-06-05 16:05:00,
2013-06-05 12:15:00,74.9,60.1,29.89,ENE,73,2.0,3.0,60,0.00,,,0.00,840,Wunderground v.1.15,2013-06-05 16:15:00,
2013-06-05 12:20:00,75.3,60.0,29.89,North,354,2.0,3.0,59,0.00,,,0.00,826,Wunderground v.1.15,2013-06-05 16:20:00,
2013-06-05 12:30:00,75.3,60.5,29.88,ESE,103,2.0,2.0,60,0.00,,,0.00,867,Wunderground v.1.15,2013-06-05 16:30:00,
2013-06-05 12:35:00,76.6,60.7,29.88,SSW,192,1.0,2.0,58,0.00,,,0.00,870,Wunderground v.1.15,2013-06-05 16:35:00,
2013-06-05 12:45:00,77.4,61.0,29.88,NE,46,1.0,2.0,57,0.00,,,0.00,898,Wunderground v.1.15,2013-06-05 16:45:00,
2013-06-05 12:50:00,77.6,61.2,29.88,East,100,1.0,1.0,57,0.00,,,0.00,926,Wunderground v.1.15,2013-06-05 16:50:00,
2013-06-05 13:00:00,79.0,61.5,29.86,ESE,113,1.0,1.0,55,0.00,,,0.00,1034,Wunderground v.1.15,2013-06-05 17:00:00,
2013-06-05 13:05:00,78.8,61.3,29.86,ENE,59,2.0,2.0,55,0.00,,,0.00,559,Wunderground v.1.15,2013-06-05 17:05:00,
2013-06-05 13:14:00,78.7,62.2,29.86,ESE,105,2.0,3.0,57,0.00,,,0.00,998,Wunderground v.1.15,2013-06-05 17:14:00,
2013-06-05 13:20:00,79.7,62.6,29.86,NE,41,1.0,3.0,56,0.00,,,0.00,1000,Wunderground v.1.15,2013-06-05 17:20:00,
2013-06-05 13:30:00,79.6,62.5,29.85,SE,135,3.0,5.0,56,0.00,,,0.00,993,Wunderground v.1.15,2013-06-05 17:30:00,
2013-06-05 13:35:00,79.3,61.7,29.85,SE,127,2.0,5.0,55,0.00,,,0.00,969,Wunderground v.1.15,2013-06-05 17:35:00,
2013-06-05 13:40:00,79.0,62.0,29.85,SE,131,4.0,4.0,56,0.00,,,0.00,933,Wunderground v.1.15,2013-06-05 17:40:00,
2013-06-05 13:50:00,79.8,62.2,29.85,ESE,105,1.0,7.0,55,0.00,,,0.00,826,Wunderground v.1.15,2013-06-05 17:50:00,
2013-06-05 13:55:00,79.9,61.2,29.85,ESE,114,3.0,7.0,53,0.00,,,0.00,946,Wunderground v.1.15,2013-06-05 17:55:00,
2013-06-05 14:05:00,79.9,62.8,29.84,SE,127,2.0,3.0,56,0.00,,,0.00,949,Wunderground v.1.15,2013-06-05 18:05:00,
2013-06-05 14:10:00,80.5,62.3,29.84,East,95,3.0,5.0,54,0.00,,,0.00,963,Wunderground v.1.15,2013-06-05 18:10:00,
2013-06-05 14:20:00,81.1,61.8,29.84,SE,131,3.0,3.0,52,0.00,,,0.00,960,Wunderground v.1.15,2013-06-05 18:20:00,
2013-06-05 14:25:00,82.1,61.6,29.84,ENE,70,1.0,3.0,50,0.00,,,0.00,1011,Wunderground v.1.15,2013-06-05 18:25:00,
2013-06-05 14:35:00,81.8,60.8,29.83,NE,39,2.0,3.0,49,0.00,,,0.00,1032,Wunderground v.1.15,2013-06-05 18:35:00,
2013-06-05 14:40:00,82.3,61.8,29.83,SSE,157,2.0,2.0,50,0.00,,,0.00,1021,Wunderground v.1.15,2013-06-05 18:40:00,
2013-06-05 14:50:00,82.5,62.0,29.83,SSW,194,1.0,2.0,50,0.00,,,0.00,1060,Wunderground v.1.15,2013-06-05 18:50:00,
2013-06-05 14:55:00,82.4,60.7,29.83,SW,226,1.0,2.0,48,0.00,,,0.00,1074,Wunderground v.1.15,2013-06-05 18:55:00,
2013-06-05 15:00:00,82.0,61.0,29.82,WSW,254,1.0,1.0,49,0.00,,,0.00,311,Wunderground v.1.15,2013-06-05 19:00:00,
2013-06-05 15:10:00,81.0,60.0,29.82,WNW,284,2.0,3.0,49,0.00,,,0.00,984,Wunderground v.1.15,2013-06-05 19:10:00,
2013-06-05 15:15:00,81.2,60.8,29.82,NW,312,2.0,3.0,50,0.00,,,0.00,844,Wunderground v.1.15,2013-06-05 19:15:00,
2013-06-05 15:25:00,81.8,60.8,29.82,North,4,2.0,2.0,49,0.00,,,0.00,364,Wunderground v.1.15,2013-06-05 19:25:00,
2013-06-05 15:30:00,82.5,60.8,29.82,WNW,289,1.0,3.0,48,0.00,,,0.00,912,Wunderground v.1.15,2013-06-05 19:30:00,
2013-06-05 15:40:00,82.4,60.1,29.81,SSW,200,3.0,3.0,47,0.00,,,0.00,615,Wunderground v.1.15,2013-06-05 19:40:00,
2013-06-05 15:45:00,82.8,60.5,29.80,East,85,2.0,3.0,47,0.00,,,0.00,733,Wunderground v.1.15,2013-06-05 19:45:00,
2013-06-05 15:55:00,83.4,61.1,29.80,WNW,283,2.0,2.0,47,0.00,,,0.00,830,Wunderground v.1.15,2013-06-05 19:55:00,
2013-06-05 16:05:00,83.6,60.0,29.80,WNW,285,2.0,5.0,45,0.00,,,0.00,795,Wunderground v.1.15,2013-06-05 20:05:00,
2013-06-05 16:14:00,83.5,59.9,29.79,WSW,258,2.0,3.0,45,0.00,,,0.00,285,Wunderground v.1.15,2013-06-05 20:14:00,
2013-06-05 16:20:00,83.0,60.7,29.79,NW,321,2.0,2.0,47,0.00,,,0.00,761,Wunderground v.1.15,2013-06-05 20:20:00,
2013-06-05 16:25:00,83.1,60.8,29.79,NNE,12,3.0,3.0,47,0.00,,,0.00,765,Wunderground v.1.15,2013-06-05 20:25:00,
2013-06-05 16:35:00,82.8,60.5,29.78,NNE,12,2.0,2.0,47,0.00,,,0.00,350,Wunderground v.1.15,2013-06-05 20:35:00,
2013-06-05 16:45:00,83.4,59.8,29.78,West,259,1.0,3.0,45,0.00,,,0.00,360,Wunderground v.1.15,2013-06-05 20:45:00,
2013-06-05 16:50:00,83.1,60.8,29.78,SW,224,2.0,4.0,47,0.00,,,0.00,443,Wunderground v.1.15,2013-06-05 20:50:00,
2013-06-05 17:00:00,82.5,60.8,29.78,NW,326,2.0,3.0,48,0.00,,,0.00,304,Wunderground v.1.15,2013-06-05 21:00:00,
2013-06-05 17:05:00,82.3,60.1,29.78,West,276,2.0,3.0,47,0.00,,,0.00,299,Wunderground v.1.15,2013-06-05 21:05:00,
2013-06-05 17:15:00,82.5,62.5,29.77,East,91,1.0,2.0,51,0.00,,,0.00,687,Wunderground v.1.15,2013-06-05 21:15:00,
2013-06-05 17:20:00,82.7,61.6,29.77,East,93,1.0,1.0,49,0.00,,,0.00,621,Wunderground v.1.15,2013-06-05 21:20:00,
2013-06-05 17:30:00,82.8,61.7,29.77,ESE,104,2.0,2.0,49,0.00,,,0.00,461,Wunderground v.1.15,2013-06-05 21:30:00,
2013-06-05 17:35:00,83.2,62.1,29.76,SE,127,1.0,5.0,49,0.00,,,0.00,487,Wunderground v.1.15,2013-06-05 21:35:00,
2013-06-05 17:45:00,82.9,62.4,29.76,ESE,122,2.0,2.0,50,0.00,,,0.00,417,Wunderground v.1.15,2013-06-05 21:45:00,
2013-06-05 17:50:00,82.9,61.8,29.76,SE,129,2.0,3.0,49,0.00,,,0.00,431,Wunderground v.1.15,2013-06-05 21:50:00,
2013-06-05 18:00:00,83.0,61.3,29.76,SE,137,2.0,2.0,48,0.00,,,0.00,457,Wunderground v.1.15,2013-06-05 22:00:00,
2013-06-05 18:05:00,83.2,63.2,29.76,SE,135,1.0,2.0,51,0.00,,,0.00,459,Wunderground v.1.15,2013-06-05 22:05:00,
2013-06-05 18:15:00,83.8,62.0,29.76,ESE,112,1.0,1.0,48,0.00,,,0.00,482,Wunderground v.1.15,2013-06-05 22:15:00,
2013-06-05 18:20:00,84.2,62.4,29.76,SSE,151,1.0,1.0,48,0.00,,,0.00,480,Wunderground v.1.15,2013-06-05 22:20:00,
2013-06-05 18:25:00,84.1,62.3,29.75,SSE,154,0.0,1.0,48,0.00,,,0.00,404,Wunderground v.1.15,2013-06-05 22:25:00,
2013-06-05 18:35:00,83.6,62.4,29.75,SE,135,1.0,3.0,49,0.00,,,0.00,394,Wunderground v.1.15,2013-06-05 22:35:00,
2013-06-05 18:40:00,83.5,63.5,29.74,SE,134,1.0,1.0,51,0.00,,,0.00,364,Wunderground v.1.15,2013-06-05 22:40:00,
2013-06-05 18:50:00,82.4,62.5,29.74,SE,139,0.0,0.0,51,0.00,,,0.00,100,Wunderground v.1.15,2013-06-05 22:50:00,
2013-06-05 18:55:00,81.6,63.3,29.74,SE,139,0.0,0.0,54,0.00,,,0.00,93,Wunderground v.1.15,2013-06-05 22:55:00,
2013-06-05 19:05:00,80.2,65.5,29.74,SE,139,0.0,0.0,61,0.00,,,0.00,76,Wunderground v.1.15,2013-06-05 23:05:00,
2013-06-05 19:10:00,79.5,66.3,29.74,SE,139,0.0,0.0,64,0.00,,,0.00,79,Wunderground v.1.15,2013-06-05 23:10:00,
2013-06-05 19:20:00,78.4,67.0,29.74,SE,139,0.0,0.0,68,0.00,,,0.00,60,Wunderground v.1.15,2013-06-05 23:20:00,
2013-06-05 19:25:00,77.9,66.5,29.74,SE,139,0.0,0.0,68,0.00,,,0.00,53,Wunderground v.1.15,2013-06-05 23:25:00,
2013-06-05 19:35:00,77.0,67.3,29.74,SE,139,0.0,0.0,72,0.00,,,0.00,47,Wunderground v.1.15,2013-06-05 23:35:00,
2013-06-05 19:40:00,76.6,66.1,29.74,SE,139,0.0,0.0,70,0.00,,,0.00,49,Wunderground v.1.15,2013-06-05 23:40:00,
2013-06-05 19:50:00,76.2,66.9,29.74,SE,139,0.0,0.0,73,0.00,,,0.00,37,Wunderground v.1.15,2013-06-05 23:50:00,
2013-06-05 19:55:00,76.2,66.9,29.75,SE,139,0.0,0.0,73,0.00,,,0.00,33,Wunderground v.1.15,2013-06-05 23:55:00,
2013-06-05 20:05:00,75.7,65.6,29.74,SE,139,0.0,0.0,71,0.00,,,0.00,33,Wunderground v.1.15,2013-06-06 00:05:00,
2013-06-05 20:10:00,75.5,65.4,29.74,SE,139,0.0,0.0,71,0.00,,,0.00,42,Wunderground v.1.15,2013-06-06 00:10:00,
2013-06-05 20:19:00,75.4,66.1,29.75,SE,139,0.0,0.0,73,0.00,,,0.00,44,Wunderground v.1.15,2013-06-06 00:19:00,
2013-06-05 20:25:00,75.2,66.3,29.75,SE,139,0.0,0.0,74,0.00,,,0.00,35,Wunderground v.1.15,2013-06-06 00:25:00,
2013-06-05 20:35:00,75.0,65.0,29.75,SE,139,0.0,0.0,71,0.00,,,0.00,30,Wunderground v.1.15,2013-06-06 00:35:00,
2013-06-05 20:40:00,75.0,64.5,29.75,SE,139,0.0,0.0,70,0.00,,,0.00,26,Wunderground v.1.15,2013-06-06 00:40:00,
2013-06-05 20:50:00,74.7,64.7,29.75,SE,139,0.0,0.0,71,0.00,,,0.00,12,Wunderground v.1.15,2013-06-06 00:50:00,
2013-06-05 20:55:00,74.3,65.1,29.74,SE,139,0.0,0.0,73,0.00,,,0.00,7,Wunderground v.1.15,2013-06-06 00:55:00,
2013-06-05 21:00:00,73.8,64.6,29.74,SE,139,0.0,0.0,73,0.00,,,0.00,0,Wunderground v.1.15,2013-06-06 01:00:00,
2013-06-05 21:10:00,72.8,64.4,29.74,SE,139,0.0,0.0,75,0.00,,,0.00,0,Wunderground v.1.15,2013-06-06 01:10:00,
2013-06-05 21:20:00,72.7,63.9,29.74,East,86,0.0,1.0,74,0.00,,,0.00,0,Wunderground v.1.15,2013-06-06 01:20:00,
2013-06-05 21:25:00,72.9,64.9,29.74,East,84,1.0,1.0,76,0.00,,,0.00,0,Wunderground v.1.15,2013-06-06 01:25:00,
2013-06-05 21:35:00,71.9,64.3,29.74,East,84,0.0,0.0,77,0.00,,,0.00,0,Wunderground v.1.15,2013-06-06 01:35:00,
2013-06-05 21:40:00,71.3,64.4,29.74,East,84,0.0,0.0,79,0.00,,,0.00,0,Wunderground v.1.15,2013-06-06 01:40:00,
2013-06-05 21:45:00,70.8,64.3,29.75,East,84,0.0,0.0,80,0.00,,,0.00,0,Wunderground v.1.15,2013-06-06 01:45:00,
2013-06-05 21:55:00,70.3,64.2,29.75,East,84,0.0,0.0,81,0.00,,,0.00,0,Wunderground v.1.15,2013-06-06 01:55:00,
2013-06-05 22:00:00,69.9,64.2,29.75,East,84,0.0,0.0,82,0.00,,,0.00,0,Wunderground v.1.15,2013-06-06 02:00:00,
2013-06-05 22:10:00,69.2,63.8,29.76,East,84,0.0,0.0,83,0.00,,,0.00,0,Wunderground v.1.15,2013-06-06 02:10:00,
2013-06-05 22:15:00,69.0,64.0,29.76,East,84,0.0,0.0,84,0.00,,,0.00,0,Wunderground v.1.15,2013-06-06 02:15:00,
2013-06-05 22:25:00,69.1,64.1,29.76,East,85,0.0,0.0,84,0.00,,,0.00,0,Wunderground v.1.15,2013-06-06 02:25:00,
2013-06-05 22:30:00,69.3,63.9,29.76,East,85,0.0,0.0,83,0.00,,,0.00,0,Wunderground v.1.15,2013-06-06 02:30:00,
2013-06-05 22:40:00,69.2,64.2,29.76,East,85,0.0,0.0,84,0.00,,,0.00,0,Wunderground v.1.15,2013-06-06 02:40:00,
2013-06-05 22:45:00,69.2,64.2,29.77,East,85,0.0,0.0,84,0.00,,,0.00,0,Wunderground v.1.15,2013-06-06 02:45:00,
2013-06-05 22:54:00,69.3,63.9,29.77,East,85,0.0,0.0,83,0.00,,,0.00,0,Wunderground v.1.15,2013-06-06 02:54:00,
2013-06-05 23:00:00,69.3,63.9,29.77,East,85,0.0,0.0,83,0.00,,,0.00,0,Wunderground v.1.15,2013-06-06 03:00:00,
2013-06-05 23:05:00,69.4,64.4,29.77,East,85,0.0,0.0,84,0.00,,,0.00,0,Wunderground v.1.15,2013-06-06 03:05:00,
2013-06-05 23:15:00,69.3,64.3,29.77,East,85,0.0,0.0,84,0.00,,,0.00,0,Wunderground v.1.15,2013-06-06 03:15:00,
2013-06-05 23:20:00,69.2,64.5,29.76,East,85,0.0,0.0,85,0.00,,,0.00,0,Wunderground v.1.15,2013-06-06 03:20:00,
2013-06-05 23:30:00,69.0,64.0,29.76,East,85,0.0,0.0,84,0.00,,,0.00,0,Wunderground v.1.15,2013-06-06 03:30:00,
2013-06-05 23:35:00,68.7,64.0,29.76,East,85,0.0,0.0,85,0.00,,,0.00,0,Wunderground v.1.15,2013-06-06 03:35:00,
2013-06-05 23:45:00,68.2,63.9,29.76,East,85,0.0,0.0,86,0.00,,,0.00,0,Wunderground v.1.15,2013-06-06 03:45:00,
2013-06-05 23:50:00,68.0,63.7,29.76,East,85,0.0,0.0,86,0.00,,,0.00,0,Wunderground v.1.15,2013-06-06 03:50:00,